TIANMU-1 17 (58702 NORAD) Tracking and Keplerian Element Data

This shows tracking and keplerian element data for the satellite.

Feedback or suggestion? Click here.




ElementValue
Catalog58702
NameTIANMU-1 17
Epoch Orbit114
Epoch Day13.11490281
Epoch Year2024
RAAN197.3397
Inclination97.453
Eccentricity0.0009881
Argument of Perigee237.1783
Mean Anonmoly122.8498
Mean Motion15.14305028
Decay Rate7.633E-05
L11 58702U 24004C 24013.11490281 .00007633 00000+0 41985-3 0 9996
L22 58702 97.4530 197.3397 0009881 237.1783 122.8498 15.14305028 1147



Live tracking and technical data element details for TIANMU-1 17 (NORAD 58702). TIANMU-1 17 can be tracked NOW for your location showing map with azimuth and elevation plus other details from your city location.







IsCatalogInMostPopularTable: catalog: 58702, numindb: 26
Update: records affected: 1



GetName: 58702 TIANMU-1 17

Hit Count: updated at: Wed, 17 Apr 2024 02:40:23 GMT